415  
NZUS93 KARX 221410  
HRRWXR  
 
CURRENT HOURLY OBSERVATIONS ACROSS  
MUCH OF THE UPPER MISSISSIPPI VALLEY  
NATIONAL WEATHER SERVICE LA CROSSE WI  
900 AM CDT MON SEP 22 2014  
 
   
..SOUTHEAST MINNESOTA
 
 
 
CITY SKY/WX TMP DP RH WIND PRES REMARKS  
ROCHESTER SUNNY 54 50 86 SW7 30.29R  
ROCHESTER/MAYO FAIR 51 47 88 W5 30.29R  
WINONA SUNNY 50 48 93 CALM 30.27S  
AUSTIN SUNNY 52 50 93 W6 30.29R  
ALBERT LEA SUNNY 52 50 93 W6 30.30S  
DODGE CENTER MOSUNNY 50 48 93 W8 30.28S  
PRESTON SUNNY 53 52 99 CALM 30.29R  
OWATONNA SUNNY 50 48 93 W3 30.29S  
FARIBAULT SUNNY 55 50 82 SW5 30.29R  

 
   
..ELSEWHERE IN MINNESOTA
 
 
 
CITY SKY/WX TMP DP RH WIND PRES REMARKS  
MINNEAPOLIS SUNNY 53 50 89 SW5 30.28R  
INTNL FALLS SUNNY 49 48 97 W8 30.13F  
DULUTH SUNNY 54 47 77 W10 30.19S  
RED WING PTSUNNY 50 48 93 NW3 30.26S FOG  
REDWOOD FALLS SUNNY 52 48 86 SW5 30.27F  
MANKATO SUNNY 52 46 82 SW3 30.29S  
WORTHINGTON SUNNY 55 48 76 SW6 30.31R  
FAIRMONT SUNNY 54 46 76 W3 30.30S  

 
   
..SOUTHWEST WISCONSIN
 
 
 
CITY SKY/WX TMP DP RH WIND PRES REMARKS  
LA CROSSE MOSUNNY 50 48 93 S8 30.27S  
PRAIRIE DU CHI PTSUNNY 49 48 96 CALM 30.29S  
BOSCOBEL CLOUDY 47 46 97 SW3 30.30S FOG  
LONE ROCK FOG 47 43 86 CALM 30.29S VSB 1/4  
PLATTEVILLE SUNNY 51 48 92 W3 30.30F  
FORT MC COY NOT AVBL  
CAMP DOUGLAS SUNNY 52 52 100 CALM 30.26S  
VIROQUA FAIR 52 50 95 SW5 30.27S  
WIS DELLS SUNNY 51 43 72 SW3 30.27S  

 
   
..ELSEWHERE IN WISCONSIN
 
 
 
CITY SKY/WX TMP DP RH WIND PRES REMARKS  
MILWAUKEE SUNNY 51 41 68 W6 30.27R  
MADISON SUNNY 52 42 69 VRB3 30.27S  
GREEN BAY SUNNY 50 45 83 W6 30.23S  
EAU CLAIRE SUNNY 51 48 89 SW6 30.25R  
BLACK RVR FLS FOG 44 44 100 CALM 30.26R VSB<1/4  
MEDFORD SUNNY 49 46 89 SW3 30.23R  
WAUSAU SUNNY 50 44 80 W5 30.22S  
WIS RAPIDS SUNNY 50 45 83 W3 30.26R  
MARSHFIELD SUNNY 50 47 89 W6 30.24R  
RICE LAKE PTSUNNY 47 46 97 CALM 30.25S  

 
   
..NORTHEAST IOWA
 
 
 
CITY SKY/WX TMP DP RH WIND PRES REMARKS  
WATERLOO SUNNY 52 50 93 CALM 30.30R  
DUBUQUE SUNNY 50 46 86 SW5 30.31R  
DECORAH SUNNY 52 48 87 CALM 30.28R  
MASON CITY SUNNY 52 50 93 W9 30.32R  
CHARLES CITY SUNNY 52 50 93 CALM 30.30S  
OELWEIN SUNNY 52 50 93 CALM 30.31R  

 
   
..ELSEWHERE IN IOWA
 
 
 
CITY SKY/WX TMP DP RH WIND PRES REMARKS  
DES MOINES SUNNY 55 49 80 CALM 30.32R  
IOWA CITY SUNNY 53 51 93 CALM 30.32S  
FORT DODGE SUNNY 50 46 87 CALM 30.32S  
MARSHALLTOWN SUNNY 50 49 96 CALM 30.32R  
CEDAR RAPIDS SUNNY 51 50 96 CALM 30.31R  

 
   
..NORTHERN ILLINOIS
 
 
 
CITY SKY/WX TMP DP RH WIND PRES REMARKS  
CHICAGO-OHARE MOSUNNY 51 40 65 NW6 30.27R  
DUPAGE SUNNY 52 43 71 N6 30.28R  
CHICAGO-MIDWAY MOSUNNY 54 44 69 NW7 30.27R  
MOLINE SUNNY 53 45 74 CALM 30.31R  
ROCKFORD SUNNY 52 44 74 CALM 30.31R  
STERLING SUNNY 54 43 66 CALM 30.30S  
PEORIA SUNNY 55 47 74 NE3 30.30R  

 
 
NOTE: "FAIR" INDICATES FEW OR NO CLOUDS BELOW 12,000 FEET WITH NO  
SIGNIFICANT WEATHER AND/OR OBSTRUCTIONS TO VISIBILITY. WIND  
SPEEDS ARE IN MILES-PER-HOUR.  
 
CLICK HERE TO GO TO PREVIOUS BULLETINS.

The Nexlab WI Page
The Nexlab IA Page
The Nexlab MN Page Main Text Page